Find Starlink 11385

NORAD ID: 62014 Int'l Des: 2024-213 Owner: SPXS Country: US Constellation: starlink operational
LEOCIRCULAR

Live Position

Loading 3D Globe...

About Starlink 11385

Description loading...

Upcoming Passes

Passes for default location (London). Set your location on the main map for personalized predictions.

Altitude History

Loading altitude history...

Two-Line Element Set

1 62014U 24213G 26130.19913377 .00148429 00000-0 12058-2 0 9993
2 62014 53.1570 98.2141 0001021 62.3982 297.7140 15.69758268 84576
Epoch: May 10, 2026 • Age: 4 hours

Current Status

Altitude 376.8 km
Velocity 7.68 km/s
Sub-Earth Point -49.26°S, 33.34°E
Launch Date Nov 18, 2024
Age 1.4 years
Type internet

Technical Details

Classification Payload
Mass 960.00 kg
Dry Mass 910.00 kg
Total Mass 960.00 kg
Length 0.30 m
Diameter 4.10 m
Span 29.00 m
Shape Box + pan
Manufacturer SPXS
Bus Type Starlink V2MD
Phase Status In Orbit
Owner/State SPXS/US

Most Searched